Needles, CA

9:47 PM PDT on October 16, 2017 (GMT -0700)
Needles

Weather History for KEED - March, 2014

Change the Weather History Date:

Sunday, March 23, 2014

  Actual Average Record
Temperature  
Mean Temperature 72 °F 66 °F  
Max Temperature 88 °F 79 °F 94 °F (1990)
Min Temperature 57 °F 53 °F 30 °F (1909)
Degree Days  
Heating Degree Days 0    
Cooling Degree Days 6    
Growing Degree Days 22 (Base 50)    
Moisture  
Dew Point 20 °F    
Average Humidity 15    
Maximum Humidity 28    
Minimum Humidity 7    
Precipitation  
Precipitation 0.00 in 0.02 in 0.40 in (1954)
Month to date precipitation 0.44  
Year to date precipitation 1.94  
Sea Level Pressure  
Sea Level Pressure 29.93 in    
Wind  
Wind Speed 5 mph (NW)    
Max Wind Speed 13 mph    
Max Gust Speed -    
Visibility 10 miles    
Events      
T = Trace of Precipitation, MM = Missing Value Source: NWS Daily Summary

Daily Weather History Graph

Daily Weather History Graph

Search for Another Location

Airport or City:

Trip Planner

Search our weather history database for the weather conditions in past years. The results will help you decide how hot, cold, wet, or windy it might be!

Date:

Astronomy

Mar. 23, 2014 Rise Set
Actual Time 6:37 AM PDT 6:52 PM PDT
Civil Twilight 6:12 AM PDT 7:17 PM PDT
Nautical Twilight 5:43 AM PDT 7:47 PM PDT
Astronomical Twilight 5:13 AM PDT 8:17 PM PDT
Moon 1:02 AM PDT (3/23) 11:34 AM PDT (3/23)
Length of Visible Light 13h 05m
Length of Day
12h 14m
Waning Gibbous, 53% of the Moon is Illuminated
Mar 23
Waning Gibbous
Mar 23
Last Quarter
Mar 30
New
Apr 7
First Quarter
Apr 15
Full

Hourly Weather History & Observations

Time (PDT) Temp. Dew Point Humidity Pressure Visibility Wind Dir Wind Speed Gust Speed Precip Events Conditions
12:56 AM 64.9 °F 25.0 °F 22% 29.90 in 10.0 mi Calm Calm - N/A   Clear
1:56 AM 62.1 °F 24.1 °F 23% 29.91 in 10.0 mi North 4.6 mph - N/A   Clear
2:56 AM 60.1 °F 24.1 °F 25% 29.92 in 10.0 mi WNW 6.9 mph - N/A   Clear
3:56 AM 60.1 °F 24.1 °F 25% 29.92 in 10.0 mi WNW 5.8 mph - N/A   Clear
4:56 AM 57.9 °F 24.1 °F 27% 29.94 in 10.0 mi North 6.9 mph - N/A   Clear
5:56 AM 59.0 °F 24.1 °F 26% 29.96 in 10.0 mi SW 5.8 mph - N/A   Clear
6:56 AM 57.0 °F 24.1 °F 28% 29.98 in 10.0 mi WSW 10.4 mph - N/A   Clear
7:56 AM 66.0 °F 25.0 °F 21% 30.00 in 10.0 mi Calm Calm - N/A   Clear
8:56 AM 71.1 °F 21.9 °F 16% 30.01 in 10.0 mi North 5.8 mph - N/A   Clear
9:56 AM 75.0 °F 17.1 °F 11% 30.01 in 10.0 mi NNE 12.7 mph - N/A   Clear
10:56 AM 77.0 °F 18.0 °F 11% 30.01 in 10.0 mi North 8.1 mph - N/A   Clear
11:56 AM 80.1 °F 19.9 °F 11% 29.99 in 10.0 mi NE 6.9 mph - N/A   Clear
12:56 PM 81.0 °F 19.9 °F 10% 29.97 in 10.0 mi Calm Calm - N/A   Clear
1:56 PM 84.0 °F 21.9 °F 10% 29.93 in 10.0 mi Variable 3.5 mph - N/A   Clear
2:56 PM 86.0 °F 16.0 °F 7% 29.90 in 10.0 mi Variable 5.8 mph - N/A   Clear
3:56 PM 86.0 °F 12.9 °F 7% 29.88 in 10.0 mi Calm Calm - N/A   Clear
4:56 PM 86.0 °F 16.0 °F 7% 29.87 in 10.0 mi ENE 5.8 mph - N/A   Clear
5:56 PM 86.0 °F 12.9 °F 7% 29.86 in 10.0 mi ENE 4.6 mph - N/A   Clear
6:56 PM 82.0 °F 16.0 °F 8% 29.88 in 10.0 mi SE 5.8 mph - N/A   Clear
7:56 PM 79.0 °F 19.0 °F 11% 29.88 in 10.0 mi SW 6.9 mph - N/A   Clear
8:56 PM 77.0 °F 16.0 °F 10% 29.90 in 10.0 mi West 10.4 mph - N/A   Clear
9:56 PM 75.9 °F 18.0 °F 11% 29.91 in 10.0 mi WSW 9.2 mph - N/A   Clear
10:56 PM 73.0 °F 19.0 °F 13% 29.91 in 10.0 mi Calm Calm - N/A   Clear
11:56 PM 72.0 °F 19.9 °F 14% 29.91 in 10.0 mi SW 6.9 mph - N/A   Clear